FW7603 Weather Reports


time (UTC)temp
C
wind
direction
speed
KPH
gust
KPH
rain 1hr
cm
rain 24hr
cm
rain mn
cm
humidity
%
barometer
mb
20260506155527 10 180 4.8 4.8 0.00 0.05 0.05 93 1024.7
20260506153703 10 188 0.0 3.2 0.00 0.05 0.05 93 1024.5
20260506153201 10 173 1.6 3.2 0.00 0.05 0.05 94 1024.4
20260506152658 10 203 0.0 3.2 0.00 0.05 0.05 94 1024.5
20260506152155 10 190 3.2 4.8 0.00 0.05 0.05 94 1024.5
20260506151654 10 180 0.0 4.8 0.00 0.05 0.05 96 1024.7
20260506151150 9 180 0.0 4.8 0.00 0.05 0.05 98 1024.5
20260506150647 9 180 1.6 3.2 0.00 0.05 0.05 99 1024.7
20260506150144 8 212 1.6 3.2 0.00 0.05 0.05 99 1024.6
20260506145641 8 225 3.2 3.2 0.00 0.05 0.05 99 1024.4
20260506145137 8 157 0.0 1.6 0.00 0.05 0.05 99 1024.5
20260506144635 8 160 0.0 0.0 0.00 0.05 0.05 99 1024.5
20260506144131 8 180 1.6 3.2 0.00 0.05 0.05 99 1024.5
20260506143629 8 165 0.0 1.6 0.00 0.05 0.05 99 1024.6
20260506143127 8 165 0.0 0.0 0.00 0.05 0.05 99 1024.6
20260506142625 8 203 0.0 0.0 0.00 0.05 0.05 99 1024.5
20260506142123 8 203 0.0 0.0 0.00 0.05 0.05 99 1024.5
20260506141620 8 209 0.0 0.0 0.00 0.05 0.05 99 1024.4
20260506141119 8 194 0.0 0.0 0.00 0.05 0.05 99 1024.4
20260506140616 8 209 0.0 0.0 0.00 0.05 0.05 99 1024.3
20260506140113 8 209 0.0 0.0 0.00 0.05 0.05 99 1024.3
20260506135610 8 209 1.6 1.6 0.00 0.05 0.05 99 1024.2
20260506135106 8 346 0.0 0.0 0.00 0.05 0.05 99 1024.1
20260506134602 8 346 0.0 0.0 0.00 0.05 0.05 99 1024.2
20260506134058 8 346 0.0 0.0 0.00 0.05 0.05 99 1024.2
20260506133556 8 346 0.0 0.0 0.00 0.05 0.05 99 1024.1
20260506133053 8 348 0.0 0.0 0.00 0.05 0.05 99 1023.8
20260506132550 8 348 0.0 0.0 0.00 0.05 0.05 99 1024.0
20260506132047 8 325 0.0 1.6 0.00 0.05 0.05 99 1024.0
20260506131544 8 354 0.0 0.0 0.00 0.05 0.05 99 1024.1
20260506131040 8 354 0.0 0.0 0.00 0.05 0.05 99 1023.8
20260506130537 8 354 0.0 0.0 0.00 0.05 0.05 99 1024.0
20260506130035 8 354 0.0 0.0 0.00 0.05 0.05 99 1023.8
20260506125533 8 354 0.0 0.0 0.00 0.05 0.05 99 1023.8
20260506125031 8 354 0.0 0.0 0.00 0.05 0.05 99 1023.8
20260506124528 8 354 0.0 0.0 0.00 0.05 0.05 99 1023.8
20260506124026 8 354 0.0 0.0 0.00 0.05 0.05 99 1023.8
20260506123524 8 354 0.0 0.0 0.00 0.05 0.05 99 1023.7
20260506123022 8 354 0.0 0.0 0.00 0.05 0.05 99 1023.7
20260506122518 8 354 0.0 0.0 0.00 0.05 0.05 99 1023.6
20260506122016 8 209 0.0 1.6 0.00 0.05 0.05 99 1023.4
20260506121513 8 209 0.0 0.0 0.00 0.05 0.05 99 1023.5
20260506121009 8 188 0.0 0.0 0.00 0.05 0.05 99 1023.5
20260506120508 8 216 0.0 3.2 0.00 0.05 0.05 99 1023.4
20260506120005 8 195 0.0 1.6 0.00 0.05 0.05 99 1023.3
20260506115502 8 261 0.0 0.0 0.00 0.05 0.05 99 1023.5
20260506115001 8 261 0.0 0.0 0.00 0.05 0.05 99 1023.5
20260506114457 8 261 0.0 0.0 0.00 0.05 0.05 99 1023.4
20260506113956 8 261 0.0 1.6 0.00 0.05 0.05 99 1023.5
20260506113454 8 187 0.0 1.6 0.05 0.05 0.05 99 1023.4
20260506112950 8 195 0.0 0.0 0.05 0.05 0.05 99 1023.3
20260506112447 8 188 0.0 1.6 0.00 0.03 0.03 99 1023.2
20260506111945 8 200 0.0 1.6 0.00 0.03 0.03 99 1023.3
20260506111443 8 229 0.0 1.6 0.00 0.03 0.03 99 1023.5
20260506110939 8 209 0.0 0.0 0.00 0.03 0.03 99 1023.3
20260506110437 8 191 0.0 3.2 0.00 0.03 0.03 99 1023.1
20260506105933 8 192 0.0 3.2 0.00 0.03 0.03 99 1023.2
20260506105430 8 196 3.2 3.2 0.00 0.03 0.03 99 1023.0
20260506104927 8 168 0.0 1.6 0.00 0.03 0.03 99 1023.1
20260506104425 8 203 0.0 3.2 0.00 0.03 0.03 99 1023.0
20260506103923 8 187 0.0 0.0 0.00 0.03 0.03 99 1023.2
20260506103420 8 180 0.0 3.2 0.00 0.03 0.03 99 1023.0
20260506102917 8 200 1.6 3.2 0.00 0.03 0.03 99 1023.0
20260506102415 8 192 0.0 1.6 0.05 0.03 0.03 99 1022.9
20260506101912 8 165 0.0 1.6 0.05 0.03 0.03 99 1022.7
20260506101408 8 180 0.0 1.6 0.00 0.03 0.03 99 1022.7
20260506100906 8 195 0.0 3.2 0.05 0.03 0.03 99 1022.9
20260506100404 8 198 0.0 3.2 0.13 0.03 0.03 99 1022.9
20260506095902 8 185 0.0 3.2 0.05 0.00 0.00 99 1022.7
20260506095400 8 186 1.6 1.6 0.00 0.00 0.00 99 1022.9
20260506094856 8 195 0.0 1.6 0.00 0.00 0.00 99 1022.5
20260506094355 8 180 0.0 1.6 0.00 0.00 0.00 99 1022.9
20260506093852 8 186 1.6 3.2 0.00 0.00 0.00 99 1022.9
20260506093350 8 192 0.0 0.0 0.00 0.00 0.00 99 1022.7
20260506092847 8 180 0.0 1.6 0.00 0.00 0.00 99 1022.7
20260506092345 8 192 0.0 1.6 0.00 0.00 0.00 99 1022.9
20260506091841 8 180 0.0 3.2 0.00 0.00 0.00 99 1022.5
20260506091340 8 172 0.0 1.6 0.00 0.00 0.00 99 1022.9
20260506090837 8 173 1.6 3.2 0.00 0.00 0.00 99 1022.9
20260506090335 8 203 0.0 3.2 0.00 0.00 0.00 99 1022.6
20260506085831 8 209 1.6 1.6 0.00 0.00 0.00 99 1022.7
20260506085327 8 188 0.0 0.0 0.00 0.00 0.00 99 1022.6
20260506084824 8 195 0.0 1.6 0.00 0.00 0.00 99 1022.6
20260506084320 8 186 0.0 3.2 0.00 0.00 0.00 99 1022.6
20260506083817 8 198 0.0 3.2 0.00 0.00 0.00 99 1022.7
20260506083314 8 188 0.0 3.2 0.00 0.00 0.00 99 1022.6
20260506082812 8 180 1.6 1.6 0.00 0.00 0.00 99 1022.7
20260506082308 8 180 1.6 3.2 0.00 0.00 0.00 99 1022.9
20260506081805 8 246 0.0 3.2 0.00 0.00 0.00 99 1022.7
20260506081303 8 169 1.6 3.2 0.00 0.00 0.00 99 1022.9
20260506080800 8 176 3.2 3.2 0.00 0.00 0.00 99 1022.7
20260506080256 8 203 1.6 3.2 0.00 0.00 0.00 99 1022.6
20260506073240 8 180 0.0 3.2 0.00 0.00 0.00 99 1022.6
20260506072737 8 172 0.0 3.2 0.00 0.00 0.00 99 1022.5
20260506072234 8 198 0.0 1.6 0.00 0.00 0.00 99 1022.5
20260506071732 8 188 0.0 1.6 0.00 0.00 0.00 99 1022.5
20260506071230 8 180 0.0 3.2 0.00 0.00 0.00 99 1022.4
20260506070727 8 180 0.0 1.6 0.00 0.00 0.00 99 1022.6
20260506070224 8 203 0.0 1.6 0.00 0.00 0.00 99 1022.5
20260506062201 8 240 1.6 1.6 0.00 0.20 0.20 99 1022.0
20260506061656 8 209 0.0 3.2 0.00 0.20 0.20 99 1022.1
20260506061154 8 195 0.0 3.2 0.00 0.20 0.20 99 1022.0
20260506060653 8 240 0.0 0.0 0.00 0.20 0.20 98 1021.9
20260506060149 8 240 0.0 0.0 0.00 0.20 0.20 98 1022.0
20260506051121 8 203 0.0 0.0 0.00 0.20 0.20 99 1021.4
20260506050620 8 203 0.0 0.0 0.00 0.20 0.20 99 1021.5
20260506050116 8 203 0.0 0.0 0.00 0.20 0.20 99 1021.5
20260506045109 8 203 0.0 0.0 0.00 0.20 0.20 99 1021.8
20260506044607 8 203 0.0 0.0 0.00 0.20 0.20 99 1021.3
20260506044104 8 203 0.0 1.6 0.00 0.20 0.20 99 1021.6
20260506043601 8 339 3.2 3.2 0.00 0.20 0.20 99 1021.3
20260506043100 8 352 0.0 0.0 0.00 0.20 0.20 99 1021.3
20260506042558 8 340 0.0 1.6 0.00 0.20 0.20 99 1021.5
20260506042056 8 0 0.0 0.0 0.00 0.20 0.20 99 1021.4
20260506041554 8 352 0.0 0.0 0.00 0.20 0.20 99 1021.2
20260506041051 8 331 0.0 0.0 0.00 0.20 0.20 99 1021.2
20260506040549 8 353 0.0 1.6 0.00 0.20 0.20 99 1021.0
20260506040044 8 0 0.0 0.0 0.00 0.20 0.20 99 1020.9
20260506035541 8 354 0.0 0.0 0.00 0.20 0.20 99 1021.0
20260506035038 8 346 0.0 0.0 0.00 0.20 0.20 99 1021.0
20260506034535 8 8 0.0 0.0 0.00 0.20 0.20 99 1021.0
20260506034032 8 352 0.0 1.6 0.00 0.20 0.20 99 1020.8
20260506033530 8 352 0.0 0.0 0.00 0.20 0.20 99 1021.2
20260506033026 8 352 0.0 1.6 0.00 0.20 0.20 99 1020.6
20260506032524 8 209 0.0 0.0 0.00 0.20 0.20 99 1020.5
20260506032020 8 209 0.0 0.0 0.00 0.20 0.20 99 1020.9
20260506031518 8 192 3.2 4.8 0.00 0.20 0.20 99 1020.4
20260506031015 8 220 0.0 3.2 0.00 0.20 0.20 99 1020.2
20260506030513 8 180 0.0 3.2 0.00 0.20 0.20 99 1020.3
20260506030010 8 192 3.2 4.8 0.00 0.20 0.20 99 1020.2
20260506025507 8 210 3.2 4.8 0.00 0.20 0.20 99 1020.1
20260506025003 8 200 0.0 4.8 0.00 0.20 0.20 99 1020.2
20260506024500 8 200 1.6 4.8 0.00 0.20 0.20 99 1020.2
20260506023956 8 200 1.6 3.2 0.00 0.20 0.20 99 1020.1
20260506023453 8 203 1.6 4.8 0.00 0.20 0.20 99 1020.2
20260506022949 8 213 3.2 4.8 0.00 0.20 0.20 99 1019.9
20260506022447 8 197 4.8 4.8 0.00 0.20 0.20 99 1019.9
20260506021945 8 174 4.8 4.8 0.00 0.20 0.20 99 1019.9
20260506021442 8 188 0.0 4.8 0.00 0.20 0.20 99 1020.1
20260506020939 8 178 4.8 6.4 0.00 0.20 0.20 99 1019.8
20260506020437 8 185 4.8 6.4 0.00 0.20 0.20 99 1019.7
20260506015934 8 174 4.8 6.4 0.00 0.20 0.20 99 1019.8
20260506015432 8 176 3.2 6.4 0.00 0.20 0.20 99 1019.9
20260506014928 8 200 1.6 3.2 0.00 0.20 0.20 99 1019.7
20260506014425 8 180 0.0 4.8 0.00 0.20 0.20 99 1019.9
20260506013921 8 168 3.2 3.2 0.00 0.20 0.20 99 1020.0
20260506013420 8 185 1.6 4.8 0.00 0.20 0.20 99 1020.2
20260506012915 8 194 1.6 4.8 0.00 0.20 0.20 99 1020.1
20260506012412 8 168 3.2 4.8 0.00 0.20 0.20 99 1019.9
20260506011909 8 180 1.6 4.8 0.00 0.20 0.20 99 1019.8
20260506011406 8 180 3.2 4.8 0.00 0.20 0.20 99 1019.9
20260506010903 8 194 1.6 4.8 0.00 0.20 0.20 99 1019.9
20260506010402 8 180 1.6 3.2 0.00 0.20 0.20 99 1019.9
20260506005858 8 203 0.0 6.4 0.00 0.20 0.20 99 1019.5
20260506005355 8 199 6.4 6.4 0.00 0.20 0.20 99 1019.8
20260506004851 8 173 3.2 6.4 0.00 0.20 0.20 99 1019.4
20260506004349 8 170 3.2 4.8 0.00 0.20 0.20 99 1019.7
20260506003845 8 165 0.0 3.2 0.00 0.20 0.20 99 1019.4
20260506003341 8 176 3.2 4.8 0.00 0.20 0.20 99 1019.4
20260506002838 8 197 0.0 4.8 0.00 0.20 0.20 99 1019.5
20260506002334 8 221 3.2 4.8 0.00 0.20 0.20 99 1019.5
20260506001829 8 169 1.6 4.8 0.00 0.20 0.20 99 1019.4
20260506001327 8 200 1.6 1.6 0.00 0.20 0.20 99 1019.8
20260506000824 8 209 0.0 3.2 0.00 0.20 0.20 99 1019.4
20260506000323 8 203 0.0 3.2 0.00 0.20 0.20 99 1019.3
20260505235818 8 191 1.6 1.6 0.05 0.20 0.20 99 1019.4
20260505235316 8 180 3.2 3.2 0.05 0.20 0.20 99 1019.4
20260505234813 8 166 1.6 3.2 0.00 0.20 0.20 99 1019.4
20260505234311 8 270 0.0 1.6 0.00 0.20 0.20 99 1019.4
20260505233807 8 212 3.2 4.8 0.00 0.20 0.20 99 1019.2
20260505233305 8 180 1.6 1.6 0.00 0.20 0.20 99 1019.3
20260505232802 8 194 0.0 3.2 0.05 0.20 0.20 99 1019.4
20260505232259 8 176 3.2 4.8 0.05 0.20 0.20 99 1019.2
20260505231755 8 187 0.0 0.0 0.00 0.18 0.18 99 1019.4
20260505231254 8 186 0.0 3.2 0.05 0.18 0.18 99 1019.4
20260505230752 8 212 1.6 4.8 0.05 0.18 0.18 99 1019.2
20260505230249 8 191 4.8 4.8 0.00 0.18 0.18 99 1019.4
20260505225746 8 228 3.2 4.8 0.00 0.18 0.18 99 1019.5
20260505225243 8 168 1.6 6.4 0.00 0.18 0.18 99 1019.3
20260505224737 8 199 0.0 3.2 0.00 0.18 0.18 99 1019.5
20260505224235 8 187 0.0 3.2 0.00 0.18 0.18 99 1019.4
20260505223733 8 203 0.0 4.8 0.00 0.18 0.18 99 1019.5
20260505223229 8 184 3.2 4.8 0.00 0.18 0.18 99 1019.4
20260505222725 8 177 3.2 6.4 0.00 0.18 0.18 99 1019.4
20260505222221 8 157 0.0 4.8 0.00 0.18 0.18 99 1019.7
20260505221719 8 212 6.4 8.0 0.00 0.18 0.18 99 1019.7
20260505221215 8 166 3.2 4.8 0.00 0.18 0.18 99 1019.4
20260505220712 8 222 4.8 4.8 0.00 0.18 0.18 98 1019.5
20260505220210 8 243 1.6 3.2 0.00 0.18 0.18 98 1019.8
20260505215708 8 183 4.8 4.8 0.00 0.18 0.18 98 1019.8
20260505215205 8 162 3.2 4.8 0.00 0.18 0.18 98 1019.7
20260505214703 8 194 4.8 4.8 0.00 0.18 0.18 98 1019.7
20260505214200 8 194 0.0 4.8 0.00 0.18 0.18 98 1019.7
20260505213657 8 203 1.6 4.8 0.00 0.18 0.18 98 1019.8
20260505213154 8 199 4.8 6.4 0.00 0.18 0.18 98 1019.7
20260505212650 8 198 3.2 4.8 0.00 0.18 0.18 98 1019.5
20260505212148 8 185 0.0 3.2 0.00 0.18 0.18 98 1019.8
20260505211644 8 188 0.0 3.2 0.00 0.18 0.18 98 1019.9
20260505211142 8 187 1.6 3.2 0.00 0.18 0.18 98 1019.8
20260505210638 8 180 4.8 4.8 0.00 0.18 0.18 98 1019.4
20260505210135 8 180 3.2 4.8 0.00 0.18 0.18 98 1019.8
20260505205633 8 215 1.6 4.8 0.00 0.18 0.18 98 1019.5
20260505205131 8 213 3.2 3.2 0.00 0.18 0.18 98 1019.4
20260505204627 8 183 4.8 4.8 0.00 0.18 0.18 98 1019.7
20260505204126 8 180 3.2 4.8 0.00 0.18 0.18 98 1019.5
20260505203622 8 206 0.0 3.2 0.00 0.18 0.18 98 1019.5
20260505203119 8 180 0.0 3.2 0.00 0.18 0.18 98 1019.4
20260505202614 8 206 3.2 4.8 0.00 0.18 0.18 98 1019.4
20260505202110 8 201 0.0 3.2 0.00 0.18 0.18 98 1019.5
20260505201607 8 180 3.2 4.8 0.00 0.18 0.18 98 1019.4
20260505201105 8 217 3.2 6.4 0.00 0.18 0.18 98 1019.5
20260505200603 8 270 0.0 1.6 0.00 0.18 0.18 98 1019.4
20260505200100 8 197 3.2 3.2 0.00 0.18 0.18 98 1019.2
20260505195556 8 169 4.8 9.7 0.00 0.18 0.18 97 1019.4
20260505195054 8 188 0.0 6.4 0.00 0.18 0.18 97 1019.4
20260505194550 8 210 3.2 6.4 0.00 0.18 0.18 97 1019.3
20260505194046 8 180 6.4 6.4 0.00 0.18 0.18 97 1019.4
20260505193543 8 180 4.8 4.8 0.00 0.18 0.18 97 1019.4
20260505193040 8 190 3.2 6.4 0.00 0.18 0.18 97 1019.7
20260505192539 8 185 3.2 6.4 0.00 0.18 0.18 97 1019.2
20260505192036 8 177 3.2 4.8 0.00 0.18 0.18 97 1019.3
20260505191534 8 173 3.2 4.8 0.00 0.18 0.18 97 1019.4
20260505191032 8 190 3.2 4.8 0.00 0.18 0.18 97 1019.3
20260505190526 8 206 3.2 6.4 0.00 0.18 0.18 96 1019.4
20260505190023 8 174 4.8 6.4 0.00 0.18 0.18 97 1019.3
20260505185520 8 214 3.2 4.8 0.00 0.18 0.18 97 1019.4
20260505185016 8 209 3.2 4.8 0.00 0.18 0.18 97 1019.1
20260505184513 8 203 1.6 4.8 0.00 0.18 0.18 97 1019.2
20260505184009 7 192 3.2 4.8 0.00 0.18 0.18 97 1019.2
20260505183506 7 196 0.0 4.8 0.00 0.18 0.18 97 1019.3
20260505183003 7 240 1.6 3.2 0.00 0.18 0.18 97 1019.2
20260505182500 7 203 1.6 4.8 0.00 0.18 0.18 97 1019.1
20260505181956 7 195 0.0 4.8 0.00 0.18 0.18 97 1019.2
20260505181453 7 198 0.0 4.8 0.00 0.18 0.18 97 1019.1
20260505180950 7 214 3.2 4.8 0.00 0.18 0.18 97 1019.1
20260505180446 7 220 1.6 3.2 0.00 0.18 0.18 98 1019.1
20260505175943 7 209 6.4 6.4 0.00 0.18 0.18 97 1019.0
20260505175439 8 175 3.2 4.8 0.00 0.18 0.18 97 1018.9
20260505174936 8 188 3.2 3.2 0.00 0.18 0.18 97 1018.9
20260505174434 7 184 0.0 4.8 0.00 0.18 0.18 97 1018.9
20260505173929 8 201 3.2 4.8 0.00 0.18 0.18 97 1018.9
20260505173426 7 208 3.2 4.8 0.00 0.18 0.18 96 1018.7
20260505172923 8 174 1.6 4.8 0.00 0.18 0.18 95 1018.8
20260505172422 8 198 4.8 4.8 0.00 0.18 0.18 95 1018.9
20260505171920 7 204 3.2 4.8 0.00 0.18 0.18 94 1018.5
20260505171418 8 176 0.0 4.8 0.00 0.18 0.18 95 1018.4
20260505170914 8 173 0.0 4.8 0.00 0.18 0.18 95 1018.5
20260505170411 8 205 4.8 4.8 0.00 0.18 0.18 94 1018.5
20260505165906 7 186 4.8 4.8 0.00 0.18 0.18 95 1018.7
20260505165403 7 173 3.2 4.8 0.00 0.18 0.18 94 1018.7
20260505164858 8 180 3.2 3.2 0.00 0.18 0.18 95 1018.4
20260505164355 7 169 4.8 4.8 0.00 0.18 0.18 94 1018.3
20260505163853 7 162 1.6 3.2 0.00 0.18 0.18 94 1018.4
20260505163352 7 180 3.2 3.2 0.00 0.18 0.18 95 1018.8
20260505162850 7 229 1.6 6.4 0.00 0.18 0.18 95 1018.3
20260505162346 7 217 3.2 6.4 0.00 0.18 0.18 96 1018.3
20260505161843 7 175 4.8 6.4 0.00 0.18 0.18 96 1018.5
20260505161340 7 180 3.2 6.4 0.00 0.18 0.18 96 1018.7
20260505160837 7 185 1.6 8.0 0.00 0.18 0.18 97 1018.4
20260505160335 7 210 4.8 6.4 0.00 0.18 0.18 96 1018.2